sat.trackr.live / text

‹ back to catalog

STARLINK-2097

NORAD 47377 · 2021-005AE

PAYLOAD ACTIVE UNKNOWN

§ Identity

Operator
Country
US
Launch date
2021-01-20
Launch site
AFETR
Launch vehicle
Mass (kg)
RCS (m²)

Purposes: comms

External: N2YO · Heavens-Above · Gunter

§ Orbital elements

Epoch: 2026-09-19T22:22:42.854016Z

Period
94.01 min
Inclination
53.1609°
Eccentricity
0.0001436
Mean motion
15.31697532 rev/d
Perigee alt
469.8 km
Apogee alt
471.7 km
Semi-major
6,848.9 km
B*
-2.0623e-5
RAAN
242.3125°
Arg perigee
97.9423°
Mean anomaly
262.1742°
Rev number
31,273

§ Raw data

STARLINK-20971 47377U 21005AE  26262.93244044 -.00001005  00000+0 -20623-4 0  99982 47377  53.1609 242.3125 0001436  97.9423 262.1742 15.31697532312733

JSON: /api/v1/satellites/47377 · /tle

For live sub-satellite position, see the globe view (requires WebGL).

§ Visibility from observer

Set your observer location to see the next 7 days of passes ≥ 10°. The values pass through the URL so the page stays shareable.

No JS? Fill the form by hand. The geolocation button needs JavaScript.